982  
ASUS42 KMHX 230325  
RWRMHX  
WEATHER ROUNDUP FOR EASTERN NORTH CAROLINA  
NATIONAL WEATHER SERVICE NEWPORT/MOREHEAD CITY NC  
1100 PM EDT FRI SEP 22 2017  
 
NOTE: "FAIR" INDICATES FEW OR NO CLOUDS BELOW 12,000 FEET  
WITH NO SIGNIFICANT WEATHER AND/OR S TO VISIBILITY
 
 
NCZ015>017-031-032-045>047-102-103-230400-  
NORTH COAST  
 
CITY SKY/WX TMP DP RH WIND PRES REMARKS
 
EDENTON CLEAR 72 70 93 CALM 30.02S  
ELIZABETH CITY CLEAR 66 66 100 SW3 30.01S FOG  
KITTY HAWK CLEAR 68 66 94 CALM 30.00S  
MANTEO CLEAR 68 66 95 CALM 30.02S  
 

 
 
NCZ045>047-081-094-103-104-230400-  
CENTRAL COAST  
 
CITY SKY/WX TMP DP RH WIND PRES REMARKS
 
FRISCO PTCLDY 74 72 93 W3 30.01S  
 

 
 
NCZ095-097-098-100-101-230400-  
SOUTHERN COAST  
 
CITY SKY/WX TMP DP RH WIND PRES REMARKS
 
BEAUFORT CLEAR 76 72 87 SW5 30.01R  
CEDAR ISLAND NOT AVBL  
JACKSONVILLE CLEAR 71 71 100 CALM 30.00S  
PINEY ISLAND N/A N/A N/A N/A S5 30.00S  
WILMINGTON CLEAR 72 70 93 CALM 30.01S  
 

 
 
NCZ011>013-027>030-043-044-078>080-089-090>093-098-230400-  
COASTAL PLAIN  
 
CITY SKY/WX TMP DP RH WIND PRES REMARKS
 
AHOSKIE CLEAR 65 65 100 CALM 30.02S  
CLINTON CLEAR 69 68 97 CALM 30.02S  
ELIZABETHTOWN NOT AVBL  
GOLDSBORO CLEAR 70 70 100 CALM 29.99S  
GREENVILLE CLEAR 72 70 94 CALM 30.03S  
HAVELOCK CLEAR 72 71 97 CALM 30.01S  
KENANSVILLE CLEAR 68 68 100 CALM 30.01S  
KINSTON CLEAR 68 66 93 CALM 30.01S  
NEW BERN CLEAR 71 70 96 S3 30.01F  
RICHLANDS CLEAR 69 68 96 CALM 30.02R  
ROCKY MOUNT CLEAR 68 68 100 CALM 30.02S  
WASHINGTON CLEAR 72 68 89 CALM 30.01S  
WHITEVILLE PTCLDY 71 70 96 CALM 30.01S  
 

 
 
AMZ130-135-150-152-154-156-158-170-250-252-270-ANZ085-086-088-633-658-670-230400-  
MARINE OBSERVATIONS  
 
STATION/POSITION TIME TEMP WIND PRES WAVE SWELL
 
AIR SEA DIR/SP/G HT/PER HT/PER  
(UTC) (F) (DEG/KT/KT) (MB) (FT/S) (FT/S)  
CHESAPEAKE LIGHT NOT AVBL  
64 E VA BEACH 0250 70 70 240/ 6/ 8 1016.2 9/11 8/11  
DUCK 0300 74 76 180/ 3/ 4 1015.8  
2 E DUCK 0300 76 N/A 5/12 3/12  
OREGON INLET 0300 73 78 50/ 2/ 2 1016.2  
13E OREGON INLT 0248 75 N/A 7/12 7/12  
HATTERAS CG 0300 76 79 240/ 3/ 4 1016.1  
DIAMOND BUOY 0250 78 78 240/ 2/ 4 1015.9 6/12 5/12  
CAPE LOOKOUT 0300 77 200/ 6/ 6 1016.0  
BEAUFORT LAB 0300 78 77 210/ 4/ 5 1015.5  
30 SE NEW RVR IN 0308 80 170/ 4/ 6 1016.0  
30 SE NEW RVR IN NOT AVBL  
27 SE WRIGHTSVLE 0308 80 80 120/ 4/ 8 1016.2  
5 SE WRIGHTSVLE 0308 78 79 220/ 4/ 8 1015.9  
225 S CAPE HAT 0250 79 80 50/ 12/ 16 1015.1 10/13 10/13  
41 SE CHARLESTON 0310 81 82 70/ 8/ 10 1014.9  
 

 
 
 
CLICK HERE TO GO TO PREVIOUS BULLETINS.

The Nexlab NC Page Main Text Page